TimeCST,TemperatureF,Dew PointF,Humidity,Sea Level PressureIn,VisibilityMPH,Wind Direction,Wind SpeedMPH,Gust SpeedMPH,PrecipitationIn,Events,Conditions,WindDirDegrees,DateUTC
12:35 AM,14.0,8.6,79,29.73,2.5,WNW,17.3,21.9,N/A,Snow,Light Snow,300,2013-02-19 06:35:00
12:56 AM,14.0,8.6,79,29.74,3.0,WNW,12.7,23.0,N/A,Snow,Light Snow,300,2013-02-19 06:56:00
1:15 AM,12.2,5.0,73,29.74,4.0,WNW,13.8,18.4,N/A,Snow,Light Snow,300,2013-02-19 07:15:00
1:35 AM,10.4,5.0,79,29.74,4.0,WNW,13.8,24.2,N/A,Snow,Light Snow,300,2013-02-19 07:35:00
1:56 AM,10.4,5.0,79,29.76,4.0,WNW,13.8,20.7,N/A,Snow,Light Snow,300,2013-02-19 07:56:00
2:15 AM,10.4,5.0,79,29.76,5.0,WNW,15.0,23.0,N/A,Snow,Light Snow,290,2013-02-19 08:15:00
2:35 AM,10.4,5.0,79,29.77,5.0,WNW,18.4,26.5,N/A,Snow,Light Snow,290,2013-02-19 08:35:00
2:56 AM,10.4,3.2,73,29.77,5.0,WNW,16.1,21.9,N/A,,Haze,290,2013-02-19 08:56:00
3:15 AM,10.4,5.0,79,29.78,4.0,West,17.3,23.0,N/A,Snow,Light Snow,280,2013-02-19 09:15:00
3:35 AM,10.4,3.2,73,29.79,4.0,WNW,15.0,24.2,N/A,Snow,Light Snow,300,2013-02-19 09:35:00
3:56 AM,10.4,3.2,73,29.80,4.0,WNW,13.8,20.7,N/A,Snow,Light Snow,300,2013-02-19 09:56:00
4:15 AM,10.4,3.2,73,29.81,3.0,WNW,15.0,20.7,N/A,Snow,Light Snow,300,2013-02-19 10:15:00
4:35 AM,10.4,3.2,73,29.82,2.5,WNW,16.1,-,N/A,Snow,Light Snow,300,2013-02-19 10:35:00
4:56 AM,10.4,5.0,79,29.83,1.8,NW,11.5,-,N/A,Snow,Light Snow,320,2013-02-19 10:56:00
5:15 AM,10.4,3.2,73,29.84,4.0,NW,18.4,31.1,N/A,Snow,Light Snow,310,2013-02-19 11:15:00
5:55 AM,8.6,1.4,73,29.86,7.0,NW,21.9,25.3,N/A,,Overcast,320,2013-02-19 11:55:00
6:15 AM,8.6,1.4,73,29.87,7.0,NW,20.7,28.8,N/A,,Overcast,320,2013-02-19 12:15:00
6:36 AM,8.6,-0.4,67,29.88,10.0,NW,18.4,28.8,N/A,,Overcast,320,2013-02-19 12:36:00
6:55 AM,8.6,-0.4,67,29.89,10.0,NW,20.7,28.8,N/A,,Overcast,320,2013-02-19 12:55:00
7:15 AM,8.6,-0.4,67,29.91,10.0,NW,18.4,26.5,N/A,,Overcast,310,2013-02-19 13:15:00
7:36 AM,8.6,-0.4,67,29.92,10.0,NW,12.7,23.0,N/A,,Overcast,310,2013-02-19 13:36:00
7:55 AM,8.6,-0.4,67,29.92,10.0,NW,15.0,20.7,N/A,,Overcast,310,2013-02-19 13:55:00
8:15 AM,8.6,-0.4,67,29.93,7.0,NW,25.3,33.4,N/A,,Overcast,310,2013-02-19 14:15:00
8:36 AM,8.6,-0.4,67,29.94,5.0,NW,19.6,31.1,N/A,,Haze,320,2013-02-19 14:36:00
8:55 AM,8.6,-0.4,67,29.95,7.0,NW,20.7,26.5,N/A,,Overcast,310,2013-02-19 14:55:00
9:15 AM,8.6,-0.4,67,29.97,3.0,NW,23.0,32.2,N/A,,Haze,310,2013-02-19 15:15:00
9:36 AM,8.6,-0.4,67,29.98,5.0,NW,25.3,32.2,N/A,,Haze,320,2013-02-19 15:36:00
9:55 AM,8.6,-2.2,62,29.98,7.0,NW,25.3,33.4,N/A,,Overcast,320,2013-02-19 15:55:00
10:15 AM,8.6,-2.2,62,29.99,10.0,WNW,18.4,21.9,N/A,,Mostly Cloudy,300,2013-02-19 16:15:00
10:36 AM,8.6,-2.2,62,30.00,10.0,NW,19.6,27.6,N/A,,Mostly Cloudy,310,2013-02-19 16:36:00
11:15 AM,10.4,-0.4,62,30.01,10.0,NW,18.4,24.2,N/A,,Mostly Cloudy,310,2013-02-19 17:15:00
11:36 AM,10.4,-0.4,62,30.02,10.0,NW,25.3,31.1,N/A,,Overcast,320,2013-02-19 17:36:00
11:55 AM,14.0,1.4,57,30.02,10.0,WNW,16.1,28.8,N/A,,Mostly Cloudy,290,2013-02-19 17:55:00
12:15 PM,14.0,1.4,57,30.02,10.0,WNW,15.0,27.6,N/A,,Mostly Cloudy,290,2013-02-19 18:15:00
12:36 PM,14.0,-0.4,53,30.03,10.0,NW,17.3,26.5,N/A,,Mostly Cloudy,310,2013-02-19 18:36:00
12:55 PM,14.0,-0.4,53,30.03,10.0,WNW,19.6,26.5,N/A,,Mostly Cloudy,300,2013-02-19 18:55:00
1:15 PM,14.0,-0.4,53,30.04,10.0,WNW,13.8,26.5,N/A,,Scattered Clouds,300,2013-02-19 19:15:00
1:36 PM,14.0,-0.4,53,30.05,10.0,NW,19.6,27.6,N/A,,Scattered Clouds,310,2013-02-19 19:36:00
1:55 PM,14.0,-0.4,53,30.06,10.0,NW,15.0,21.9,N/A,,Scattered Clouds,310,2013-02-19 19:55:00
2:15 PM,14.0,1.4,57,30.06,10.0,WNW,13.8,25.3,N/A,,Scattered Clouds,290,2013-02-19 20:15:00
2:36 PM,14.0,1.4,57,30.07,10.0,WNW,18.4,24.2,N/A,,Scattered Clouds,300,2013-02-19 20:36:00
2:55 PM,14.0,-0.4,53,30.08,10.0,WNW,15.0,25.3,N/A,,Clear,290,2013-02-19 20:55:00
3:15 PM,14.0,1.4,57,30.09,10.0,WNW,13.8,20.7,N/A,,Scattered Clouds,290,2013-02-19 21:15:00
3:35 PM,14.0,-0.4,53,30.10,10.0,WNW,16.1,20.7,N/A,,Scattered Clouds,290,2013-02-19 21:35:00
3:55 PM,10.4,-2.2,57,30.12,10.0,WNW,13.8,19.6,N/A,,Clear,290,2013-02-19 21:55:00
4:16 PM,10.4,-2.2,57,30.13,10.0,West,12.7,24.2,N/A,,Clear,280,2013-02-19 22:16:00
4:35 PM,10.4,-2.2,57,30.14,10.0,WNW,17.3,21.9,N/A,,Clear,300,2013-02-19 22:35:00
4:55 PM,10.4,-4.0,52,30.15,10.0,WNW,15.0,-,N/A,,Clear,290,2013-02-19 22:55:00
5:16 PM,8.6,-4.0,57,30.16,10.0,WNW,12.7,-,N/A,,Clear,290,2013-02-19 23:16:00
6:35 PM,8.6,-4.0,57,30.20,10.0,WNW,12.7,19.6,N/A,,Clear,300,2013-02-20 00:35:00
6:55 PM,8.6,-4.0,57,30.20,10.0,WNW,10.4,18.4,N/A,,Clear,300,2013-02-20 00:55:00
7:16 PM,8.6,-4.0,57,30.21,10.0,WNW,10.4,17.3,N/A,,Clear,300,2013-02-20 01:16:00
7:55 PM,5.0,-5.8,61,30.24,10.0,WNW,11.5,-,N/A,,Clear,290,2013-02-20 01:55:00
8:16 PM,5.0,-5.8,61,30.24,10.0,WNW,6.9,-,N/A,,Clear,300,2013-02-20 02:16:00
8:35 PM,5.0,-4.0,66,30.25,10.0,WNW,8.1,-,N/A,,Clear,300,2013-02-20 02:35:00
8:55 PM,5.0,-4.0,66,30.26,10.0,WNW,9.2,-,N/A,,Clear,300,2013-02-20 02:55:00
9:16 PM,5.0,-4.0,66,30.27,10.0,WNW,9.2,-,N/A,,Clear,300,2013-02-20 03:16:00
9:35 PM,5.0,-5.8,61,30.27,10.0,NW,6.9,-,N/A,,Clear,310,2013-02-20 03:35:00
9:55 PM,5.0,-5.8,61,30.28,10.0,NW,4.6,-,N/A,,Clear,310,2013-02-20 03:55:00
10:16 PM,3.2,-5.8,66,30.28,10.0,NW,5.8,-,N/A,,Clear,310,2013-02-20 04:16:00
10:35 PM,5.0,-5.8,61,30.29,10.0,WNW,5.8,-,N/A,,Clear,300,2013-02-20 04:35:00
10:55 PM,5.0,-5.8,61,30.29,10.0,NW,8.1,-,N/A,,Clear,310,2013-02-20 04:55:00
11:16 PM,5.0,-5.8,61,30.30,10.0,NNW,9.2,-,N/A,,Clear,330,2013-02-20 05:16:00
11:35 PM,5.0,-5.8,61,30.31,10.0,NNW,9.2,-,N/A,,Clear,330,2013-02-20 05:35:00
11:55 PM,5.0,-5.8,61,30.32,10.0,NNW,9.2,-,N/A,,Clear,330,2013-02-20 05:55:00